Stations météo

Publicité
Nimes/Garons, France (7646): Température de l'air & dewpoint: 13.10.2017 21:00:00 - 19.10.2017 21:00:00 (CEST)Nimes/Garons, France (7646): Vitesse du vent & gusts: 13.10.2017 21:00:00 - 19.10.2017 21:00:00 (CEST)Nimes/Garons, France (7646): Direction du vent: 13.10.2017 21:00:00 - 19.10.2017 21:00:00 (CEST)Nimes/Garons, France (7646): reduced air pressure: 13.10.2017 21:00:00 - 19.10.2017 21:00:00 (CEST)Nimes/Garons, France (7646): visibility: 13.10.2017 21:00:00 - 19.10.2017 21:00:00 (CEST)Nimes/Garons, France (7646): Quantités de précipitations: 13.10.2017 21:00:00 - 19.10.2017 21:00:00 (CEST)
Date & Time tt [°C] td [°C] ff [km/h] ff [knt] fx [km/h] fx [knt] dd ppp [hPa] vv [km] rr [mm]
19.10.2017 21:00:00 19,8 11,0 13 7 21 11 SE 1013,7 43 0,0
19.10.2017 20:00:00 19,3 12,8 0 0 4 2 N 1013,3 34 0,0
19.10.2017 19:00:00 20,1 13,1 2 1 20 11 ESE 1012,3 30 0,0
19.10.2017 18:00:00 20,8 13,2 14 8 37 20 SE 1011,7 26 0,0
19.10.2017 17:00:00 21,2 13,1 24 13 42 23 SSE 1011,6 48 0,0
19.10.2017 16:00:00 21,5 13,9 26 14 40 22 SSE 1012,2 10 0,0
19.10.2017 15:00:00 22,9 13,7 24 13 44 24 SSE 1012,1 10 0,0
19.10.2017 14:00:00 21,6 13,2 21 11 39 21 SE 1012,7 10 0,0
19.10.2017 13:00:00 21,0 12,7 21 11 32 17 SE 1013,5 10 0,0
19.10.2017 12:00:00 20,4 12,6 24 13 44 24 SE 1014,0 10 0,0
19.10.2017 11:00:00 19,6 12,8 19 10 32 17 ESE 1013,6 36 0,0
19.10.2017 10:00:00 18,6 12,6 18 10 29 15 ESE 1013,8 10 0,0
19.10.2017 09:00:00 17,6 12,1 15 8 27 14 ESE 1013,6 10 0,0
19.10.2017 08:00:00 16,8 11,9 16 9 24 13 ESE 1013,8 10 0,0
19.10.2017 07:00:00 16,0 11,2 11 6 26 14 SE 1013,8 29 0,0
19.10.2017 06:00:00 16,9 11,4 16 9 24 13 ESE 1013,7 31 0,0
19.10.2017 05:00:00 16,4 11,8 9 5 21 11 SE 1013,9 10 0,0
19.10.2017 04:00:00 16,6 11,9 10 5 15 8 E 1013,3 25 0,0
19.10.2017 03:00:00 16,8 11,9 9 5 16 8 ESE 1014,4 25 0,0
19.10.2017 02:00:00 17,0 12,1 11 6 18 10 ESE 1014,6 10 0,0
19.10.2017 01:00:00 17,5 12,4 13 7 24 13 E 1014,7 10 0,0
19.10.2017 00:00:00 18,2 14,1 10 5 29 16 ESE 1014,9 27 0,0
18.10.2017 23:00:00 18,2 14,5 16 9 28 15 ESE 1014,9 25 0,0
18.10.2017 22:00:00 18,4 15,1 14 8 28 15 SE 1015,1 19 0,0
18.10.2017 21:00:00 18,5 15,0 20 11 34 18 SE 1014,8 6 0,0
18.10.2017 20:00:00 18,5 15,2 18 10 36 19 SE 1014,7 10 0,0
18.10.2017 19:00:00 18,7 15,0 21 11 51 28 SE 1013,9 19 0,0
18.10.2017 18:00:00 19,7 15,3 29 16 49 26 SSE 1014,1 10 0,0
18.10.2017 17:00:00 19,9 15,1 29 16 47 26 SSE 1014,5 10 0,0
18.10.2017 16:00:00 20,5 14,8 24 13 46 25 SSE 1014,5 10 0,0
18.10.2017 15:00:00 21,2 15,1 29 16 45 24 SSE 1015,2 10 0,0
18.10.2017 14:00:00 20,9 14,5 26 14 47 26 SSE 1016,1 10 0,0
18.10.2017 13:00:00 21,5 14,2 28 15 48 26 SE 1016,8 10 0,0
18.10.2017 12:00:00 19,4 13,1 26 14 38 21 SE 1017,5 10 0,0
18.10.2017 11:00:00 19,0 13,4 24 13 39 21 SE 1017,8 7 0,0
18.10.2017 10:00:00 16,2 11,1 24 13 34 18 SE 1018,1 10 0,0
18.10.2017 09:00:00 15,4 9,3 22 12 32 18 ESE 1018,1 33 0,0
18.10.2017 08:00:00 14,4 9,8 16 9 24 13 ESE 1018,1 27 0,0
18.10.2017 07:00:00 13,9 10,3 12 7 19 10 ESE 1018,5 18 0,0
18.10.2017 06:00:00 14,5 11,1 13 7 28 15 ESE 1019,0 10 0,0
18.10.2017 05:00:00 14,6 12,6 16 9 24 13 SE 1019,3 8 0,0
18.10.2017 04:00:00 15,1 13,0 14 8 23 13 ESE 1019,9 9 0,0
18.10.2017 03:00:00 15,4 13,6 16 9 27 14 ESE 1020,2 8 0,0
18.10.2017 02:00:00 15,4 14,1 18 10 28 15 ESE 1020,7 7 0,0
18.10.2017 01:00:00 15,9 14,6 16 9 26 14 ESE 1021,1 7 0,0
18.10.2017 00:00:00 16,2 15,1 14 8 21 11 ESE 1021,5 7 0,0
17.10.2017 23:00:00 15,8 14,8 11 6 18 10 ESE 1021,8 5 0,0
17.10.2017 22:00:00 16,3 15,0 11 6 16 9 ESE 1021,8 4,8 0,0
17.10.2017 21:00:00 16,1 15,0 8 4 8 5 SE 1021,7 5 0,0
17.10.2017 20:00:00 15,7 14,1 5 3 13 7 S 1021,8 10 0,0
17.10.2017 19:00:00 16,6 13,7 9 5 23 12 S 1021,7 9 0,0
17.10.2017 18:00:00 19,8 14,2 16 9 22 12 S 1021,7 10 0,0
17.10.2017 17:00:00 20,8 14,0 11 6 28 15 S 1022,0 10 0,0
17.10.2017 16:00:00 21,3 13,2 15 8 26 14 S 1022,4 10 0,0
17.10.2017 15:00:00 21,4 13,1 15 8 25 14 S 1022,9 10 0,0
17.10.2017 14:00:00 20,4 13,4 13 7 22 12 S 1024,0 30 0,0
17.10.2017 13:00:00 20,1 13,3 4 2 12 7 - 1024,8 10 0,0
17.10.2017 12:00:00 17,0 14,3 4 2 11 6 - 1025,3 9 0,0
17.10.2017 11:00:00 13,6 13,1 5 3 13 7 NE 1026,0 2,5 0,0
17.10.2017 10:00:00 13,1 12,6 9 5 16 9 NE 1025,8 2,8 0,0
17.10.2017 09:00:00 13,4 13,1 5 3 8 5 NNE 1025,6 0,2 0,0
17.10.2017 08:00:00 12,4 11,9 4 2 10 5 - 1025,5 4,0 0,2
17.10.2017 07:00:00 12,6 12,3 5 3 9 5 NE 1025,5 3,2 0,0
17.10.2017 06:00:00 11,5 11,0 6 3 11 6 ENE 1025,6 0,1 0,0
17.10.2017 05:00:00 13,6 13,1 3 2 6 4 NE 1025,7 0,1 0,0
17.10.2017 04:00:00 12,2 11,7 4 2 8 5 E 1026,2 2,0 0,0
17.10.2017 03:00:00 11,9 11,3 5 3 6 3 ENE 1026,7 0,1 0,0
17.10.2017 02:00:00 10,8 9,7 4 2 5 3 ENE 1027,1 0,1 0,0
17.10.2017 01:00:00 11,8 11,3 4 2 5 3 - 1027,4 0,4 0,2
17.10.2017 00:00:00 11,4 10,1 0 0 4 2 N 1027,3 0,2 0,0
16.10.2017 23:00:00 13,9 13,3 3 2 6 3 SSW 1027,3 1,6 0,0
16.10.2017 22:00:00 14,0 12,7 5 3 8 4 SW 1027,1 9 0,0
16.10.2017 21:00:00 15,0 12,7 6 4 10 6 SSW 1026,9 18 0,0
16.10.2017 20:00:00 16,5 13,6 5 3 13 7 SW 1026,9 19 0,0
16.10.2017 19:00:00 18,2 13,9 5 3 14 8 SSW 1026,6 20 0,0
16.10.2017 18:00:00 19,9 13,4 9 5 21 11 S 1026,4 9 0,0
16.10.2017 17:00:00 22,5 13,3 11 6 20 11 S 1026,5 9 0,0
16.10.2017 16:00:00 23,1 13,3 9 5 24 13 S 1026,8 10 0,0
16.10.2017 15:00:00 23,2 13,1 5 3 24 13 - 1027,3 10 0,0
16.10.2017 14:00:00 22,5 12,7 9 5 23 12 SSE 1028,1 10 0,0
16.10.2017 13:00:00 20,8 13,0 9 5 21 12 SSE 1028,8 10 0,0
16.10.2017 12:00:00 20,7 15,0 9 5 16 9 SE 1029,0 36 0,0
16.10.2017 11:00:00 17,9 14,4 8 5 13 7 E 1029,1 16 0,0
16.10.2017 10:00:00 15,6 13,8 8 4 15 8 ENE 1029,0 10 0,0
16.10.2017 09:00:00 14,0 12,9 8 4 11 6 ENE 1028,5 8 0,0
16.10.2017 08:00:00 13,4 12,5 3 2 12 6 E 1027,8 4,9 0,0
16.10.2017 07:00:00 13,6 12,7 8 4 11 6 ENE 1027,6 4,7 0,0
16.10.2017 06:00:00 13,9 13,1 5 3 9 5 ENE 1027,5 4,4 0,0
16.10.2017 05:00:00 14,3 13,3 5 3 8 4 ENE 1027,3 5 0,0
16.10.2017 04:00:00 14,7 13,7 5 3 8 5 E 1027,6 5 0,0
16.10.2017 03:00:00 15,0 14,0 5 3 9 5 E 1028,1 5 0,0
16.10.2017 02:00:00 15,3 14,5 4 2 6 3 ESE 1028,1 5 0,2
16.10.2017 01:00:00 15,0 14,0 3 2 5 3 E 1028,5 10 0,0
16.10.2017 00:00:00 14,9 13,6 2 1 5 3 ESE 1028,6 10 0,0
15.10.2017 23:00:00 15,4 13,9 0 0 5 3 N 1028,5 10 0,0
15.10.2017 22:00:00 15,4 13,2 4 2 6 3 SW 1028,4 15 0,0
15.10.2017 21:00:00 15,8 13,1 5 3 9 5 WSW 1028,3 10 0,0
15.10.2017 20:00:00 17,4 13,9 5 3 13 7 W 1027,9 35 0,0
15.10.2017 19:00:00 19,3 14,5 5 3 20 11 SW 1027,5 10 0,0
15.10.2017 18:00:00 21,6 15,0 13 7 22 12 SSW 1027,2 10 0,0
15.10.2017 17:00:00 23,3 14,6 9 5 23 13 S 1027,2 10 0,0
15.10.2017 16:00:00 23,5 14,5 13 7 23 13 SSE 1027,5 10 0,0
15.10.2017 15:00:00 23,4 14,1 8 5 21 11 SSW 1027,8 51 0,0
15.10.2017 14:00:00 23,0 13,5 11 6 21 12 S 1028,5 10 0,0
15.10.2017 13:00:00 22,6 13,6 10 6 21 11 SE 1029,1 13 0,0
15.10.2017 12:00:00 21,8 14,2 11 6 19 11 SE 1029,4 16 0,0
15.10.2017 11:00:00 19,9 13,8 9 5 15 8 SE 1029,5 10 0,0
15.10.2017 10:00:00 17,0 13,3 6 3 13 7 E 1029,6 10 0,0
15.10.2017 09:00:00 14,3 12,3 6 4 10 6 ENE 1029,4 6 0,0
15.10.2017 08:00:00 14,3 12,3 6 4 10 5 ENE 1029,1 6 0,0
15.10.2017 07:00:00 14,7 12,7 5 3 11 6 ENE 1028,8 5 0,0
15.10.2017 06:00:00 15,1 12,8 5 3 10 5 E 1028,6 6 0,0
15.10.2017 05:00:00 15,6 13,3 7 4 10 6 E 1028,5 7 0,0
15.10.2017 04:00:00 15,8 13,5 3 2 8 5 ESE 1028,4 6 0,0
15.10.2017 03:00:00 16,2 13,5 2 1 9 5 - 1028,7 9 0,0
15.10.2017 02:00:00 16,2 13,7 4 2 7 4 E 1028,7 10 0,0
15.10.2017 01:00:00 16,3 13,6 0 0 6 3 N 1028,6 10 0,0
15.10.2017 00:00:00 16,2 13,5 0 0 3 2 N 1028,5 10 0,0
14.10.2017 23:00:00 15,6 13,4 0 0 5 3 N 1028,3 10 0,0
14.10.2017 22:00:00 16,1 13,2 3 1 8 5 NW 1028,2 14 0,0
14.10.2017 21:00:00 17,2 14,3 5 3 8 5 S 1027,9 10 0,0
14.10.2017 20:00:00 17,5 12,8 0 0 6 3 N 1027,7 10 0,0
14.10.2017 19:00:00 19,4 12,9 5 3 11 6 WSW 1027,3 34 0,0
14.10.2017 18:00:00 20,6 13,3 5 3 13 7 SW 1027,2 10 0,0
14.10.2017 17:00:00 21,1 13,3 8 4 14 8 SW 1027,3 19 0,0
14.10.2017 16:00:00 21,4 13,8 5 3 18 10 - 1027,3 10 0,0
14.10.2017 15:00:00 20,6 13,8 7 4 22 12 S 1027,7 13 0,0
14.10.2017 14:00:00 20,6 13,8 3 2 12 6 SSE 1028,2 13 0,0
14.10.2017 13:00:00 20,1 13,5 4 2 13 7 - 1028,7 10 0,0
14.10.2017 12:00:00 19,1 13,9 8 4 14 8 E 1029,0 13 0,0
14.10.2017 11:00:00 18,2 14,1 10 5 13 7 E 1028,9 10 0,0
14.10.2017 10:00:00 17,8 14,9 6 3 9 5 E 1028,4 7 0,0
14.10.2017 09:00:00 17,4 15,0 0 0 4 2 N 1027,8 5 0,0
14.10.2017 08:00:00 17,1 14,9 0 0 9 5 N 1027,1 4,8 0,0
14.10.2017 07:00:00 17,2 15,0 5 3 8 4 ENE 1026,8 6 0,0
14.10.2017 06:00:00 17,0 15,3 4 2 6 4 - 1026,8 5 0,0
14.10.2017 05:00:00 17,1 15,8 4 2 8 4 E 1026,9 5 0,0
14.10.2017 04:00:00 17,2 16,1 4 2 6 3 ENE 1026,9 4,0 0,0
14.10.2017 03:00:00 17,3 16,3 4 2 6 3 E 1027,1 3,6 0,0
14.10.2017 02:00:00 17,5 16,7 3 2 6 3 E 1027,0 2,2 0,0
14.10.2017 01:00:00 17,1 16,3 2 1 5 3 E 1027,0 4,3 0,0
14.10.2017 00:00:00 16,9 16,3 3 2 4 2 ENE 1027,0 4,1 0,0
13.10.2017 23:00:00 16,0 15,4 0 0 4 2 N 1027,0 0,7 0,0
13.10.2017 22:00:00 16,5 15,7 0 0 7 4 N 1026,5 1,7 0,0
13.10.2017 21:00:00 16,5 15,2 4 2 8 4 S 1026,3 7 0,0

tt = Température de l'air
td = dewpoint
ff = Vitesse du vent
fx = gusts
dd = Direction du vent
ppp = reduced air pressure
vv = visibility
rr = Quantités de précipitations

stations d'obs. à proximité